Location: Potomac
(46.8816°N, 113.5795°W)
Time: 10:18:20
(UTC+00:00)

Gurwin Techsat 1B - Pass Details

Date: 04 July 2022
Orbit: 812 x 813 km, 98.8° (Epoch: 09 August)

Event Time Altitude Azimuth Distance (km) Brightness Sun altitude
Rises 09:16:33 0° 24° (NNE) 3,346 13.6 -16.8°
Reaches altitude 10° 09:19:15 10° 36° (NE) 2,409 12.3 -16.7°
Maximum altitude 09:23:46 28° 94° (E) 1,499 10.2 -16.3°
Drops below altitude 10° 09:28:15 10° 152° (SSE) 2,394 10.7 -16.0°
Enters shadow 09:28:31 - 154° (SSE) 2,477 10.8 -16.0°
